Regional Weather Roundup
Issued by NWS

Home | Current Version | Previous Version | Graphics & Text | Print | Product List | Glossary On
Versions: 1 2 3 4 5 6 7 8 9 10 11 12 13 14 15 16 17 18 19 20 21 22 23 24 25 26 27 28 29 30 31 32 33 34 35 36 37 38 39 40 41 42 43 44 45 46 47 48 49 50
722
ASUS45 KPSR 251910
RWRAZ

ARIZONA HOURLY REGIONAL WEATHER ROUNDUP
NATIONAL WEATHER SERVICE PHOENIX AZ
1200 PM MST SAT MAR 25 2017

NOTE: FAIR INDICATES FEW OR NO CLOUDS BELOW 12,000 FEET WITH NO
SIGNIFICANT WEATHER AND/OR OBSTRUCTIONS TO VISIBILITY.

AZZ001>003-036-252000-
NORTHWEST ARIZONA

CITY           SKY/WX    TMP DP  RH WIND       PRES   REMARKS
BULLHEAD CITY  PTSUNNY   75  37  25 S8G17     29.93F
KINGMAN        CLOUDY    62  22  21 SW13G22   30.00F
$$

AZZ004>008-015-016-018-252000-
NORTH CENTRAL ARIZONA

CITY           SKY/WX    TMP DP  RH WIND       PRES   REMARKS
GRAND CANYON   CLOUDY    49  31  49 SW13G29   30.05F
WILLIAMS       MOSUNNY   52  30  43 SW20G30   30.06F
PRESCOTT       PTSUNNY   58  30  34 S14G23    30.04F
FLAGSTAFF      MOSUNNY   49  28  44 SW13      30.07F
PAYSON         SUNNY     57  32  38 VRB6G15   30.10F
PAGE           CLOUDY    55  37  50 VRB3      29.96F
$$

AZZ009>014-017-252000-
NORTHEAST ARIZONA

CITY           SKY/WX    TMP DP  RH WIND       PRES   REMARKS
WINSLOW        CLOUDY    64  29  26 E7        29.99F
SAINT JOHNS    PTSUNNY   62  18  18 MISG      30.02F
WINDOW ROCK    CLOUDY    57  21  24 S10       30.05F
SHOW LOW       PTSUNNY   57  23  26 SW23G31   30.09S
$$

AZZ023-252000-
GREATER PHOENIX AREA

CITY           SKY/WX    TMP DP  RH WIND       PRES   REMARKS
PHOENIX        MOSUNNY   74  32  21 VRB5      29.96F
BUCKEYE        SUNNY     73  36  25 S6        29.97F
GLENDALE       MOSUNNY   73  34  23 CALM      29.99F
LUKE AFB       SUNNY     74  34  23 VRB6      29.96F
DEER VALLEY    SUNNY     73  35  25 VRB7      29.97F
SCOTTSDALE     SUNNY     73  34  23 SW8       29.99F
MESA-FALCON    SUNNY    N/A N/A N/A SE10      29.95F
MESA-GATEWAY   MOSUNNY   73  34  23 SE6       30.00F
CHANDLER       SUNNY     75  28  17 S7        29.98F
$$

AZZ027-028-252000-
SOUTHWEST MARICOPA COUNTY AND PINAL COUNTY

CITY           SKY/WX    TMP DP  RH WIND       PRES   REMARKS
CASA GRANDE    NOT AVBL
GILA BEND      MOSUNNY   79  27  15 SW7G20    29.95F
$$

AZZ503-504-507>509-252000-
SOUTHEAST ARIZONA

CITY           SKY/WX    TMP DP  RH WIND       PRES   REMARKS
TUCSON         SUNNY     74  20  13 VRB5      30.03F
DAVIS-MONTHAN  SUNNY     73  19  13 VRB3      30.02F
RYAN FIELD     SUNNY     75  21  13 W9        30.02F
NOGALES        SUNNY     75  16  10 W9        30.05F
SIERRA VISTA   MOSUNNY   75   3   6 W14G22    30.07F
DOUGLAS        PTSUNNY   73  19  13 VRB7      30.05F
SAFFORD        PTSUNNY   69  31  24 SE5       30.01F
$$

AZZ020-021-025-026-031-252000-
SOUTHWEST ARIZONA

CITY           SKY/WX    TMP DP  RH WIND       PRES   REMARKS
YUMA           SUNNY     79  33  19 W17G30    29.96F
$$

CAZ031-033-041-043-047-048-061-252000-
SOUTHERN CALIFORNIA

CITY           SKY/WX    TMP DP  RH WIND       PRES   REMARKS
DOWNTOWN L.A.  PTSUNNY   68  51  54 CALM      30.09F
L.A. AIRPORT   PTSUNNY   63  54  72 SW13      30.10F
SAN DIEGO      PTSUNNY   67  48  50 NW10      30.13F
BURBANK        PTSUNNY   62  47  57 VRB7      30.09F
ONTARIO        PTSUNNY   62  48  60 SW3       30.09F
RIVERSIDE      PTSUNNY   64  49  57 CALM      30.10F
PALM SPRINGS   SUNNY     79  34  19 NW21G38   29.96F
EL CENTRO NAS  MOSUNNY   81  35  19 W9        29.98F
IMPERIAL       SUNNY     79  40  24 NW12G21   29.96F
BLYTHE         SUNNY     78  34  20 VRB5      29.95F
NEEDLES        MOSUNNY   77  37  23 W8G18     29.94F
$$

NVZ020-UTZ003-252000-
SOUTHERN NEVADA-UTAH

CITY           SKY/WX    TMP DP  RH WIND       PRES   REMARKS
LAS VEGAS      PTSUNNY   66  35  31 NW7       29.96F
SALT LAKE CITY RAIN      41  38  89 NW10      30.02F FOG
$$

NMZ009-TXZ055-252000-
NEW MEXICO-WEST TEXAS

CITY           SKY/WX    TMP DP  RH WIND       PRES   REMARKS
ALBUQUERQUE    CLOUDY    63  19  18 SW9       30.05F
EL PASO        MOSUNNY   71  21  15 S9        30.07F
$$


........................KEY........................
SKY/WX - SKY CONDITION/WEATHER
TMP    - TEMPERATURE IN FAHRENHEIT
DP     - DEW POINT IN FAHRENHEIT
RH     - RELATIVE HUMIDITY IN PERCENT
WIND   - DIRECTION AND SPEED IN MILES PER HOUR (MPH)
VRB    - VARIABLE WIND DIRECTION
PRES   - MEAN SEA LEVEL PRESSURE IN INCHES OF MERCURY
         F - FALLING PRESSURE   R - RISING PRESSURE
         S - STEADY PRESSURE
VSB    - VISIBILITY IN MILES
HX     - HEAT INDEX IN FAHRENHEIT
WCI    - WIND CHILL INDEX IN FAHRENHEIT
TC     - TEMPERATURE IN CELSIUS WHICH IS ALSO KNOWN AS
         TEMPERATURE IN CENTIGRADE
AFB    - AIR FORCE BASE
         LUKE AFB IS LUKE AIR FORCE BASE
         DAVIS-MONTHAN IS DAVIS-MONTHAN AIR FORCE BASE
NAS    - NAVAL AIR STATION
         EL CENTRO NAS IS EL CENTRO NAVAL AIR STATION
N/A    - NOT AVAILABLE





USA.gov is the U.S. government's official web portal to all federal, state and local government web resources and services.